CAPE
1614 1704 1408 1320 900 1041 1255 1433 1312 933 975 825 785 609 568 632 612 578 571 730 800 814 967 1900 1352 1531 1529 1508 1421 1162 1085 1132 1302 936 963 824 1310 892 774 765 1074 898
1582 1315 1214 1048 1470 1236 1208 1142 892 832 778 890 808 726 745 595 571 461 481 565 696 622 804 1103 1764 1633 1503 1406 1559 1318 1303 1427 1437 1304 1433 1529 1497 1531 1296 1006 1066 1643
1368 1337 1265 1314 1482 1144 1094 974 917 939 930 1114 875 837 714 624 517 444 355 378 231 286 729 937 1051 1642 1665 1614 1467 1594 1523 1658 1762 1507 1460 1100 1102 1474 1751 1834 1863 1602
1472 1120 1214 1483 1408 1135 1043 1014 977 1026 1040 792 767 698 692 497 487 495 439 258 269 315 656 764 667 570 607 1118 1628 1408 1628 1725 1687 1673 1491 1242 1365 1399 1558 1210 1414 1176
1402 1297 1215 1476 1219 1047 958 936 930 892 769 735 546 430 356 531 412 360 370 362 330 399 594 746 738 653 553 476 550 1087 1377 1702 1445 1632 1454 1100 1579 1462 1610 1272 1122 1080
1212 916 844 718 697 851 807 838 812 774 679 518 416 270 364 411 327 298 264 286 261 268 310 523 568 686 713 439 458 628 996 1167 1163 1093 1018 1017 1064 1016 1088 1165 786 1013
954 990 735 685 776 811 757 849 773 660 610 527 277 328 406 361 273 281 176 159 121 79 133 262 356 683 654 467 507 584 1254 870 744 867 557 1059 833 1127 1007 1054 722 940
1114 1028 854 752 810 825 788 787 753 753 624 464 430 274 301 168 277 281 107 75 35 28 71 173 205 269 451 464 368 596 798 951 820 505 212 180 201 227 352 882 645 1142
660 840 718 814 882 877 856 776 728 683 493 552 381 214 323 204 265 14 1 11 63 92 131 200 219 293 482 452 380 392 286 364 282 119 97 117 246 257 233 1105 1084 795
699 370 902 781 778 869 1075 888 691 617 461 412 328 154 215 198 42 0 0 62 84 85 188 168 250 454 358 208 149 142 76 75 74 134 139 152 138 16 1 143 322 745
786 1017 994 866 821 809 916 859 699 493 369 401 314 283 165 41 0 8 1 73 184 91 83 134 141 173 124 48 26 24 2 18 13 24 58 8 8 0 1 8 29 96
909 938 768 768 497 692 836 784 650 481 482 676 242 278 70 0 0 0 0 19 0 25 2 3 11 37 51 47 52 44 4 0 1 18 1 1 0 0 0 11 2 6
898 683 689 682 840 815 776 681 602 556 662 483 226 80 1 0 0 0 0 0 0 0 0 0 0 0 4 12 44 41 35 4 2 1 4 0 0 1 6 0 27 2
724 583 594 736 781 734 610 580 600 472 428 175 82 4 0 0 0 0 0 0 0 0 0 0 0 0 0 0 0 9 2 45 17 8 4 5 2 0 0 0 14 12
1106 701 612 713 650 519 537 498 424 213 81 44 2 0 0 0 0 0 0 0 0 0 0 84 44 0 0 0 0 0 13 19 28 24 21 13 2 0 1 1 2 7
985 888 716 572 489 531 534 316 165 54 6 0 0 0 0 0 0 0 0 0 0 0 162 0 0 0 0 0 0 0 0 32 3 33 23 16 2 0 0 0 0 2
644 617 647 604 563 554 457 374 404 810 529 0 0 0 0 0 0 0 0 0 0 25 0 0 0 0 0 0 0 0 0 77 34 0 2 0 0 4 0 0 0 1
184 217 262 261 219 153 155 142 160 235 369 316 207 81 20 16 20 1 5 62 10 0 0 0 0 0 0 0 0 0 0 0 99 0 2 0 2 0 0 0 0 2
0 0 0 0 0 0 0 0 0 0 10 50 141 201 159 209 391 127 24 0 0 0 0 0 0 0 0 0 0 0 0 1 5 0 0 0 22 18 84 41 6 5
152 0 0 0 0 0 0 0 0 0 0 0 2 2 108 85 25 0 0 0 0 0 0 0 0 0 0 0 0 0 0 0 140 6 3 16 3 28 56 80 74 119
0 0 0 0 0 0 0 0 0 0 0 1 2 2 0 1 0 0 0 0 0 0 0 0 0 0 0 0 0 0 0 0 91 26 9 68 89 150 100 169 249 220
9 0 0 0 0 0 0 0 0 0 0 2 4 6 4 0 0 0 0 0 0 0 0 0 0 0 0 0 0 0 0 0 41 50 89 438 570 616 360 612 679 734
0 0 0 0 0 0 0 0 0 0 0 2 6 7 10 6 2 0 0 0 0 0 0 0 0 0 0 0 0 0 0 0 40 20 130 239 298 395 297 473 574 68
0 2 0 0 0 0 0 0 0 0 0 5 8 8 6 3 0 0 0 1 0 0 0 0 0 0 0 0 0 0 0 0 0 4 13 28 61 101 116 154 0 0
5 1 1 0 0 3 2 1 0 0 0 0 1 1 1 0 0 1 3 3 1 0 0 0 0 0 0 0 0 0 0 0 0 0 0 0 0 0 0 4 0 0
7 9 4 3 0 0 1 2 1 1 1 2 1 0 0 0 2 4 5 5 4 1 0 0 0 2 4 8 0 0 0 0 0 0 0 0 0 0 0 0 0 0
Wind_Speed
13 17 18 21 21 20 19 20 21 20 21 20 19 18 18 19 18 18 19 19 18 16 15 14 13 13 11 11 13 11 13 14 13 16 12 13 12 21 16 12 10 10
18 20 20 21 22 21 21 21 22 21 21 19 20 19 19 19 18 18 19 18 17 15 14 13 11 11 12 11 13 11 13 13 12 13 14 13 14 15 17 16 10 13
21 20 21 21 22 23 23 23 22 21 20 20 20 18 19 19 18 19 18 16 14 14 13 13 11 11 12 12 12 11 12 12 11 13 12 13 12 13 14 16 15 14
20 20 21 22 23 24 23 23 23 21 20 19 18 19 18 18 18 19 17 15 13 14 13 12 12 12 12 13 13 11 12 12 12 13 13 12 11 11 13 15 17 12
21 21 22 23 22 23 23 23 21 19 18 18 18 17 18 18 18 17 16 15 14 12 11 12 12 13 13 13 12 14 13 13 14 12 12 12 13 11 13 15 17 15
21 22 23 21 20 21 22 22 21 19 18 16 15 16 17 16 15 16 14 13 12 11 11 12 12 13 13 13 12 13 14 14 14 12 14 14 12 14 14 15 15 13
23 23 23 21 21 21 22 22 21 20 19 17 15 16 16 14 14 14 14 13 12 nan 10 11 10 11 11 12 12 12 15 15 12 12 12 12 13 14 11 15 10 10
24 24 23 23 22 23 22 23 22 21 21 19 17 17 13 13 15 16 16 nan nan nan nan 12 11 10 9 10 11 13 13 14 13 10 12 14 12 11 9 11 12 13
25 24 24 24 24 22 22 24 24 24 22 20 18 15 12 12 15 nan nan nan nan nan 14 14 12 12 13 12 13 14 14 14 14 13 nan 14 12 11 9 8 12 9
25 24 24 25 24 24 24 26 27 25 24 21 19 16 14 14 nan nan nan nan nan nan 17 17 16 16 16 15 15 15 nan nan nan 16 15 14 13 nan nan 11 12 11
24 24 26 26 26 26 26 28 28 27 26 23 21 19 19 nan nan nan nan nan 17 nan nan 18 19 18 19 nan nan nan nan nan nan nan nan nan nan nan nan nan nan nan
23 25 26 26 26 27 27 27 28 28 27 26 23 23 nan nan nan nan nan nan nan nan nan nan nan nan nan nan nan nan nan nan nan nan nan nan nan nan nan nan nan nan
26 26 26 26 27 28 26 25 27 28 27 26 26 nan nan nan nan nan nan nan nan nan nan nan nan nan nan nan nan nan nan nan nan nan nan nan nan nan nan nan nan nan
28 27 26 27 28 27 25 24 26 26 27 28 nan nan nan nan nan nan nan nan nan nan nan nan nan nan nan nan nan nan nan nan nan nan nan nan nan nan nan nan nan nan
34 31 29 29 29 28 27 26 25 26 nan nan nan nan nan nan nan nan nan nan nan nan nan nan nan nan nan nan nan nan nan nan nan nan nan nan nan nan nan nan nan nan
38 34 32 31 31 32 31 28 27 nan nan nan nan nan nan nan nan nan nan nan nan nan 30 nan nan nan nan nan nan nan nan nan nan nan nan nan nan nan nan nan nan nan
39 35 34 34 35 34 35 35 35 33 32 nan nan nan nan nan nan nan nan nan nan nan nan nan nan nan nan nan nan nan nan nan nan nan nan nan nan nan nan nan nan nan
39 37 36 37 37 36 36 36 35 34 35 34 32 nan nan nan nan nan nan nan nan nan nan nan nan nan nan nan nan nan nan nan nan nan nan nan nan nan nan nan nan nan
nan nan nan nan nan nan nan nan nan nan nan nan 36 33 34 36 36 34 nan nan nan nan nan nan nan nan nan nan nan nan nan nan nan nan nan nan nan nan nan nan nan nan
41 nan nan nan nan nan nan nan nan nan nan nan nan nan 34 nan nan nan nan nan nan nan nan nan nan nan nan nan nan nan nan nan 24 nan nan nan nan nan nan nan nan 28
nan nan nan nan nan nan nan nan nan nan nan nan nan nan nan nan nan nan nan nan nan nan nan nan nan nan nan nan nan nan nan nan nan nan nan nan nan 31 29 31 29 30
nan nan nan nan nan nan nan nan nan nan nan nan nan nan nan nan nan nan nan nan nan nan nan nan nan nan nan nan nan nan nan nan nan nan nan 28 30 30 29 31 32 32
nan nan nan nan nan nan nan nan nan nan nan nan nan nan nan nan nan nan nan nan nan nan nan nan nan nan nan nan nan nan nan nan nan nan 27 28 29 30 29 32 36 nan
nan nan nan nan nan nan nan nan nan nan nan nan nan nan nan nan nan nan nan nan nan nan nan nan nan nan nan nan nan nan nan nan nan nan nan nan nan 31 30 35 nan nan
nan nan nan nan nan nan nan nan nan nan nan nan nan nan nan nan nan nan nan nan nan nan nan nan nan nan nan nan nan nan nan nan nan nan nan nan nan nan nan nan nan nan
nan nan nan nan nan nan nan nan nan nan nan nan nan nan nan nan nan nan nan nan nan nan nan nan nan nan nan nan nan nan nan nan nan nan nan nan nan nan nan nan nan nan
Wind_Direction
278 274 270 268 268 265 261 260 257 258 255 255 256 256 257 256 260 259 258 261 266 270 272 268 271 273 271 267 261 253 257 261 252 266 265 262 248 270 277 275 276 281
283 275 272 272 269 269 262 258 258 258 257 256 258 256 257 261 259 259 263 265 267 268 264 265 265 267 269 265 263 259 257 260 261 257 260 262 255 258 273 288 297 284
277 274 275 274 268 266 261 258 258 258 258 257 260 262 261 260 260 257 257 255 258 260 254 258 259 262 263 258 260 255 257 263 261 259 256 264 252 254 257 266 271 282
274 275 274 269 265 263 260 257 257 257 261 264 264 262 262 259 257 258 253 250 244 247 249 249 252 255 257 255 257 251 251 255 257 254 251 234 257 252 261 270 272 277
270 271 269 264 260 261 258 260 261 261 265 262 260 260 259 256 256 255 252 247 242 245 249 250 251 253 249 252 250 247 247 248 252 254 260 262 255 263 268 274 278 283
271 270 270 264 262 261 261 262 260 261 260 259 255 253 251 251 247 247 242 243 246 247 251 249 250 248 247 246 244 250 251 248 250 254 250 257 268 270 272 273 270 276
276 272 271 268 267 265 264 261 257 256 256 252 252 251 252 247 246 243 246 244 248 nan 248 253 247 242 237 235 239 239 252 253 243 246 273 284 276 274 277 274 276 297
275 272 265 261 265 266 263 262 256 254 253 252 253 255 254 247 244 236 238 nan nan nan nan 222 233 236 228 232 234 241 242 247 259 259 245 252 260 274 285 290 307 317
272 269 266 264 268 267 266 262 256 254 252 251 254 256 251 244 240 nan nan nan nan nan 227 226 229 240 241 241 242 240 242 240 243 245 nan 245 247 249 258 260 275 277
269 271 270 269 269 267 267 261 258 254 252 252 253 254 250 238 nan nan nan nan nan nan 234 235 240 248 255 255 257 252 nan nan nan 243 242 247 249 nan nan 260 256 253
267 268 271 271 271 269 269 265 260 255 253 253 253 251 245 nan nan nan nan nan 231 nan nan 244 249 251 252 nan nan nan nan nan nan nan nan nan nan nan nan nan nan nan
265 269 272 273 273 273 274 268 262 256 253 251 253 251 nan nan nan nan nan nan nan nan nan nan nan nan nan nan nan nan nan nan nan nan nan nan nan nan nan nan nan nan
265 268 270 271 270 271 272 269 262 255 253 252 251 nan nan nan nan nan nan nan nan nan nan nan nan nan nan nan nan nan nan nan nan nan nan nan nan nan nan nan nan nan
263 264 266 265 266 269 269 266 259 254 251 250 nan nan nan nan nan nan nan nan nan nan nan nan nan nan nan nan nan nan nan nan nan nan nan nan nan nan nan nan nan nan
256 255 256 258 260 263 262 261 257 252 nan nan nan nan nan nan nan nan nan nan nan nan nan nan nan nan nan nan nan nan nan nan nan nan nan nan nan nan nan nan nan nan
255 252 254 255 256 256 255 255 253 nan nan nan nan nan nan nan nan nan nan nan nan nan 240 nan nan nan nan nan nan nan nan nan nan nan nan nan nan nan nan nan nan nan
256 251 250 251 250 251 250 247 241 235 236 nan nan nan nan nan nan nan nan nan nan nan nan nan nan nan nan nan nan nan nan nan nan nan nan nan nan nan nan nan nan nan
253 248 245 245 244 245 245 245 242 241 241 240 239 nan nan nan nan nan nan nan nan nan nan nan nan nan nan nan nan nan nan nan nan nan nan nan nan nan nan nan nan nan
nan nan nan nan nan nan nan nan nan nan nan nan 244 246 255 252 248 248 nan nan nan nan nan nan nan nan nan nan nan nan nan nan nan nan nan nan nan nan nan nan nan nan
251 nan nan nan nan nan nan nan nan nan nan nan nan nan 252 nan nan nan nan nan nan nan nan nan nan nan nan nan nan nan nan nan 240 nan nan nan nan nan nan nan nan 261
nan nan nan nan nan nan nan nan nan nan nan nan nan nan nan nan nan nan nan nan nan nan nan nan nan nan nan nan nan nan nan nan nan nan nan nan nan 258 259 259 258 258
nan nan nan nan nan nan nan nan nan nan nan nan nan nan nan nan nan nan nan nan nan nan nan nan nan nan nan nan nan nan nan nan nan nan nan 254 260 261 261 263 261 260
nan nan nan nan nan nan nan nan nan nan nan nan nan nan nan nan nan nan nan nan nan nan nan nan nan nan nan nan nan nan nan nan nan nan 255 257 258 257 260 262 261 nan
nan nan nan nan nan nan nan nan nan nan nan nan nan nan nan nan nan nan nan nan nan nan nan nan nan nan nan nan nan nan nan nan nan nan nan nan nan 259 255 260 nan nan
nan nan nan nan nan nan nan nan nan nan nan nan nan nan nan nan nan nan nan nan nan nan nan nan nan nan nan nan nan nan nan nan nan nan nan nan nan nan nan nan nan nan
nan nan nan nan nan nan nan nan nan nan nan nan nan nan nan nan nan nan nan nan nan nan nan nan nan nan nan nan nan nan nan nan nan nan nan nan nan nan nan nan nan nan